| time (UTC) | temp C | wind direction | speed KPH | gust KPH | rain 1hr cm | rain 24hr cm | rain mn cm | humidity % | barometer mb |
| 20260505012006 | 18 | 268 | 12.9 | 19.3 | 0.00 | 0.00 | 0.00 | 71 | 1011.7 |
| 20260505011515 | 18 | 268 | 12.9 | 19.3 | 0.00 | 0.00 | 0.00 | 71 | 1011.6 |
| 20260505011008 | 19 | 268 | 12.9 | 19.3 | 0.00 | 0.00 | 0.00 | 70 | 1011.6 |
| 20260505010505 | 19 | 268 | 12.9 | 19.3 | 0.00 | 0.00 | 0.00 | 68 | 1011.7 |
| 20260505010019 | 20 | 268 | 12.9 | 19.3 | 0.00 | 0.00 | 0.00 | 69 | 1011.7 |
| 20260505005507 | 20 | 268 | 12.9 | 19.3 | 0.00 | 0.00 | 0.00 | 67 | 1011.7 |
| 20260505005004 | 20 | 268 | 12.9 | 19.3 | 0.00 | 0.00 | 0.00 | 65 | 1011.7 |
| 20260505004512 | 21 | 268 | 12.9 | 19.3 | 0.00 | 0.00 | 0.00 | 67 | 1011.7 |
| 20260505004006 | 21 | 268 | 12.9 | 19.3 | 0.00 | 0.00 | 0.00 | 63 | 1011.6 |
| 20260505003507 | 21 | 268 | 12.9 | 19.3 | 0.00 | 0.00 | 0.00 | 64 | 1011.6 |
| 20260505003013 | 21 | 268 | 12.9 | 19.3 | 0.00 | 0.00 | 0.00 | 60 | 1011.6 |
| 20260505002506 | 22 | 268 | 12.9 | 19.3 | 0.00 | 0.00 | 0.00 | 61 | 1011.6 |
| 20260505002006 | 22 | 268 | 12.9 | 19.3 | 0.00 | 0.00 | 0.00 | 58 | 1011.6 |
| 20260505001516 | 22 | 268 | 12.9 | 19.3 | 0.00 | 0.00 | 0.00 | 58 | 1011.5 |
| 20260505001005 | 22 | 268 | 12.9 | 19.3 | 0.00 | 0.00 | 0.00 | 56 | 1011.6 |
| 20260505000509 | 22 | 268 | 12.9 | 19.3 | 0.00 | 0.00 | 0.00 | 55 | 1011.7 |
| 20260505000025 | 23 | 268 | 12.9 | 19.3 | 0.00 | 0.00 | 0.00 | 55 | 1011.6 |
| 20260504235506 | 23 | 268 | 12.9 | 19.3 | 0.00 | 0.00 | 0.00 | 53 | 1011.6 |
| 20260504235007 | 23 | 268 | 12.9 | 19.3 | 0.00 | 0.00 | 0.00 | 52 | 1011.7 |
| 20260504234514 | 23 | 268 | 12.9 | 19.3 | 0.00 | 0.00 | 0.00 | 51 | 1011.7 |
| 20260504234010 | 23 | 268 | 12.9 | 19.3 | 0.00 | 0.00 | 0.00 | 52 | 1011.8 |
| 20260504233506 | 24 | 268 | 12.9 | 19.3 | 0.00 | 0.00 | 0.00 | 53 | 1011.7 |
| 20260504233017 | 24 | 268 | 12.9 | 19.3 | 0.00 | 0.00 | 0.00 | 51 | 1011.7 |
| 20260504232508 | 24 | 268 | 12.9 | 19.3 | 0.00 | 0.00 | 0.00 | 47 | 1011.8 |
| 20260504232008 | 24 | 268 | 12.9 | 19.3 | 0.00 | 0.00 | 0.00 | 51 | 1011.8 |
| 20260504231518 | 24 | 268 | 12.9 | 19.3 | 0.00 | 0.00 | 0.00 | 47 | 1011.8 |
| 20260504231006 | 25 | 268 | 12.9 | 19.3 | 0.00 | 0.00 | 0.00 | 45 | 1011.9 |
| 20260504230505 | 25 | 268 | 12.9 | 19.3 | 0.00 | 0.00 | 0.00 | 46 | 1011.8 |
| 20260504230025 | 25 | 268 | 12.9 | 19.3 | 0.00 | 0.00 | 0.00 | 46 | 1011.9 |
| 20260504225507 | 25 | 268 | 12.9 | 19.3 | 0.00 | 0.00 | 0.00 | 46 | 1011.9 |
| 20260504225006 | 25 | 268 | 12.9 | 19.3 | 0.00 | 0.00 | 0.00 | 49 | 1012.0 |
| 20260504224522 | 25 | 268 | 12.9 | 19.3 | 0.00 | 0.00 | 0.00 | 48 | 1011.9 |
| 20260504224006 | 25 | 268 | 12.9 | 19.3 | 0.00 | 0.00 | 0.00 | 44 | 1012.1 |
| 20260504223506 | 25 | 268 | 12.9 | 19.3 | 0.00 | 0.00 | 0.00 | 44 | 1012.0 |
| 20260504223018 | 25 | 268 | 12.9 | 19.3 | 0.00 | 0.00 | 0.00 | 44 | 1012.0 |
| 20260504222507 | 25 | 268 | 12.9 | 19.3 | 0.00 | 0.00 | 0.00 | 44 | 1011.9 |
| 20260504222007 | 25 | 268 | 12.9 | 19.3 | 0.00 | 0.00 | 0.00 | 45 | 1012.0 |
| 20260504221536 | 25 | 268 | 12.9 | 19.3 | 0.00 | 0.00 | 0.00 | 44 | 1012.1 |
| 20260504221012 | 25 | 268 | 12.9 | 19.3 | 0.00 | 0.00 | 0.00 | 45 | 1012.2 |
| 20260504220508 | 26 | 268 | 12.9 | 19.3 | 0.00 | 0.00 | 0.00 | 44 | 1012.1 |
| 20260504220015 | 25 | 268 | 12.9 | 19.3 | 0.00 | 0.00 | 0.00 | 44 | 1012.0 |
| 20260504215507 | 25 | 268 | 12.9 | 19.3 | 0.00 | 0.00 | 0.00 | 46 | 1012.2 |
| 20260504215011 | 25 | 268 | 12.9 | 19.3 | 0.00 | 0.00 | 0.00 | 44 | 1012.2 |
| 20260504214522 | 25 | 268 | 12.9 | 19.3 | 0.00 | 0.00 | 0.00 | 44 | 1012.2 |
| 20260504214007 | 25 | 268 | 12.9 | 19.3 | 0.00 | 0.00 | 0.00 | 43 | 1012.2 |
| 20260504213510 | 26 | 268 | 12.9 | 19.3 | 0.00 | 0.00 | 0.00 | 42 | 1012.2 |
| 20260504213020 | 25 | 268 | 12.9 | 19.3 | 0.00 | 0.00 | 0.00 | 44 | 1012.2 |
| 20260504212508 | 25 | 268 | 12.9 | 19.3 | 0.00 | 0.00 | 0.00 | 42 | 1012.2 |
| 20260504212009 | 26 | 268 | 12.9 | 19.3 | 0.00 | 0.00 | 0.00 | 43 | 1012.4 |
| 20260504211520 | 26 | 268 | 12.9 | 19.3 | 0.00 | 0.00 | 0.00 | 44 | 1012.5 |
| 20260504211007 | 26 | 268 | 12.9 | 19.3 | 0.00 | 0.00 | 0.00 | 45 | 1012.6 |
| 20260504210508 | 26 | 268 | 12.9 | 19.3 | 0.00 | 0.00 | 0.00 | 43 | 1012.7 |
| 20260504210006 | 25 | 268 | 12.9 | 19.3 | 0.00 | 0.00 | 0.00 | 47 | 1012.8 |
| 20260504205508 | 25 | 268 | 12.9 | 19.3 | 0.00 | 0.00 | 0.00 | 45 | 1012.8 |
| 20260504205008 | 25 | 268 | 12.9 | 19.3 | 0.00 | 0.00 | 0.00 | 42 | 1013.0 |
| 20260504204504 | 25 | 268 | 12.9 | 19.3 | 0.00 | 0.00 | 0.00 | 47 | 1013.2 |
| 20260504204008 | 25 | 268 | 12.9 | 19.3 | 0.00 | 0.00 | 0.00 | 45 | 1013.3 |
| 20260504203503 | 25 | 268 | 12.9 | 19.3 | 0.00 | 0.00 | 0.00 | 45 | 1013.3 |
| 20260504203020 | 26 | 268 | 12.9 | 19.3 | 0.00 | 0.00 | 0.00 | 46 | 1013.4 |
| 20260504202508 | 26 | 268 | 12.9 | 19.3 | 0.00 | 0.00 | 0.00 | 52 | 1013.4 |
| 20260504202004 | 25 | 268 | 12.9 | 19.3 | 0.00 | 0.00 | 0.00 | 44 | 1013.5 |
| 20260504201520 | 25 | 268 | 12.9 | 19.3 | 0.00 | 0.00 | 0.00 | 44 | 1013.7 |
| 20260504201005 | 26 | 268 | 12.9 | 19.3 | 0.00 | 0.00 | 0.00 | 44 | 1013.7 |
| 20260504200511 | 26 | 268 | 12.9 | 19.3 | 0.00 | 0.00 | 0.00 | 43 | 1013.7 |
| 20260504200014 | 26 | 268 | 12.9 | 19.3 | 0.00 | 0.00 | 0.00 | 47 | 1013.8 |
| 20260504195504 | 26 | 268 | 12.9 | 19.3 | 0.00 | 0.00 | 0.00 | 47 | 1013.8 |
| 20260504195007 | 26 | 268 | 12.9 | 19.3 | 0.00 | 0.00 | 0.00 | 44 | 1013.8 |
| 20260504194510 | 26 | 268 | 12.9 | 19.3 | 0.00 | 0.00 | 0.00 | 47 | 1013.9 |
| 20260504194003 | 26 | 268 | 12.9 | 19.3 | 0.00 | 0.00 | 0.00 | 41 | 1013.9 |
| 20260504193507 | 25 | 268 | 12.9 | 19.3 | 0.00 | 0.00 | 0.00 | 45 | 1013.9 |
| 20260504193008 | 25 | 268 | 12.9 | 19.3 | 0.00 | 0.00 | 0.00 | 46 | 1014.0 |
| 20260504192508 | 25 | 268 | 12.9 | 19.3 | 0.00 | 0.00 | 0.00 | 43 | 1014.1 |
| 20260504192007 | 26 | 268 | 12.9 | 19.3 | 0.00 | 0.00 | 0.00 | 47 | 1014.1 |
| 20260504191511 | 26 | 268 | 12.9 | 19.3 | 0.00 | 0.00 | 0.00 | 48 | 1014.2 |
| 20260504191008 | 25 | 268 | 12.9 | 19.3 | 0.00 | 0.00 | 0.00 | 44 | 1014.1 |
| 20260504190506 | 25 | 268 | 12.9 | 19.3 | 0.00 | 0.00 | 0.00 | 44 | 1014.2 |
| 20260504190005 | 25 | 268 | 12.9 | 19.3 | 0.00 | 0.00 | 0.00 | 46 | 1014.3 |
| 20260504185507 | 25 | 268 | 12.9 | 19.3 | 0.00 | 0.00 | 0.00 | 47 | 1014.4 |
| 20260504185005 | 25 | 268 | 12.9 | 19.3 | 0.00 | 0.00 | 0.00 | 44 | 1014.4 |
| 20260504184522 | 25 | 268 | 12.9 | 19.3 | 0.00 | 0.00 | 0.00 | 44 | 1014.5 |
| 20260504184006 | 25 | 268 | 12.9 | 19.3 | 0.00 | 0.00 | 0.00 | 41 | 1014.5 |
| 20260504183504 | 25 | 268 | 12.9 | 19.3 | 0.00 | 0.00 | 0.00 | 43 | 1014.7 |
| 20260504183022 | 25 | 268 | 12.9 | 19.3 | 0.00 | 0.00 | 0.00 | 43 | 1014.7 |
| 20260504182508 | 25 | 268 | 12.9 | 19.3 | 0.00 | 0.00 | 0.00 | 44 | 1014.7 |
| 20260504182015 | 25 | 220 | 9.7 | 22.5 | 0.00 | 0.00 | 0.00 | 49 | 1014.7 |
| 20260504181518 | 25 | 167 | 8.0 | 22.5 | 0.00 | 0.00 | 0.00 | 43 | 1014.8 |
| 20260504181007 | 25 | 208 | 12.9 | 22.5 | 0.00 | 0.00 | 0.00 | 43 | 1014.9 |
| 20260504180510 | 25 | 239 | 11.3 | 17.7 | 0.00 | 0.00 | 0.00 | 43 | 1014.9 |
| 20260504180019 | 25 | 63 | 0.0 | 0.0 | 0.00 | 0.00 | 0.00 | 45 | 1015.0 |
| 20260504175504 | 25 | 63 | 0.0 | 0.0 | 0.00 | 0.00 | 0.00 | 48 | 1015.0 |
| 20260504175008 | 25 | 63 | 0.0 | 0.0 | 0.00 | 0.00 | 0.00 | 50 | 1015.0 |
| 20260504174512 | 25 | 63 | 0.0 | 0.0 | 0.00 | 0.00 | 0.00 | 51 | 1015.1 |
| 20260504174008 | 25 | 63 | 0.0 | 0.0 | 0.00 | 0.00 | 0.00 | 50 | 1015.1 |
| 20260504173509 | 25 | 63 | 0.0 | 0.0 | 0.00 | 0.00 | 0.00 | 50 | 1015.1 |
| 20260504173010 | 25 | 63 | 0.0 | 0.0 | 0.00 | 0.00 | 0.00 | 49 | 1015.3 |
| 20260504172510 | 24 | 63 | 0.0 | 0.0 | 0.00 | 0.00 | 0.00 | 53 | 1015.3 |
| 20260504172006 | 25 | 63 | 0.0 | 0.0 | 0.00 | 0.00 | 0.00 | 54 | 1015.3 |
| 20260504171532 | 25 | 63 | 0.0 | 0.0 | 0.00 | 0.00 | 0.00 | 49 | 1015.3 |
| 20260504171010 | 25 | 63 | 0.0 | 0.0 | 0.00 | 0.00 | 0.00 | 51 | 1015.3 |
| 20260504170504 | 25 | 63 | 0.0 | 0.0 | 0.00 | 0.00 | 0.00 | 53 | 1015.4 |
| 20260504151007 | 21 | 63 | 0.0 | 0.0 | 0.00 | 0.00 | 0.00 | 65 | 1016.4 |
| 20260504150507 | 21 | 63 | 0.0 | 0.0 | 0.00 | 0.00 | 0.00 | 64 | 1016.5 |
| 20260504141017 | 19 | 63 | 0.0 | 0.0 | 0.00 | 0.00 | 0.00 | 71 | 1016.6 |
| 20260504140506 | 18 | 63 | 0.0 | 0.0 | 0.00 | 0.00 | 0.00 | 70 | 1016.6 |
| 20260504130511 | 15 | 63 | 0.0 | 0.0 | 0.00 | 0.00 | 0.00 | 83 | 1016.5 |
| 20260504110506 | 8 | 63 | 0.0 | 0.0 | 0.00 | 0.00 | 0.00 | 89 | 1015.8 |
| 20260504100505 | 8 | 63 | 0.0 | 0.0 | 0.00 | 0.00 | 0.00 | 89 | 1016.0 |
| 20260504082007 | 9 | 63 | 0.0 | 0.0 | 0.00 | 0.00 | 0.00 | 88 | 1016.2 |
| 20260504081511 | 9 | 63 | 0.0 | 0.0 | 0.00 | 0.00 | 0.00 | 88 | 1016.2 |
| 20260504081018 | 9 | 63 | 0.0 | 0.0 | 0.00 | 0.00 | 0.00 | 88 | 1016.3 |
| 20260504080508 | 9 | 63 | 0.0 | 0.0 | 0.00 | 0.00 | 0.00 | 88 | 1016.3 |
| 20260504050503 | 10 | 63 | 0.0 | 0.0 | 0.00 | 0.00 | 0.00 | 87 | 1017.8 |
| 20260504050004 | 10 | 63 | 0.0 | 0.0 | 0.00 | 0.00 | 0.00 | 87 | 1017.7 |
| 20260504045507 | 10 | 63 | 0.0 | 0.0 | 0.00 | 0.00 | 0.00 | 87 | 1017.6 |
| 20260504045006 | 10 | 63 | 0.0 | 0.0 | 0.00 | 0.00 | 0.00 | 86 | 1017.6 |
| 20260504044504 | 10 | 63 | 0.0 | 0.0 | 0.00 | 0.00 | 0.00 | 86 | 1017.6 |
| 20260504044007 | 10 | 63 | 0.0 | 0.0 | 0.00 | 0.00 | 0.00 | 86 | 1017.6 |
| 20260504043504 | 10 | 63 | 0.0 | 0.0 | 0.00 | 0.00 | 0.00 | 86 | 1017.6 |
| 20260504043017 | 10 | 63 | 0.0 | 0.0 | 0.00 | 0.00 | 0.00 | 86 | 1017.6 |
| 20260504042504 | 10 | 63 | 0.0 | 0.0 | 0.00 | 0.00 | 0.00 | 86 | 1017.5 |
| 20260504042004 | 10 | 63 | 0.0 | 0.0 | 0.00 | 0.00 | 0.00 | 86 | 1017.6 |
| 20260504041514 | 11 | 63 | 0.0 | 0.0 | 0.00 | 0.00 | 0.00 | 86 | 1017.7 |
| 20260504041004 | 11 | 63 | 0.0 | 0.0 | 0.00 | 0.00 | 0.00 | 86 | 1017.7 |
| 20260504040506 | 11 | 63 | 0.0 | 0.0 | 0.00 | 0.00 | 0.00 | 86 | 1017.7 |
| 20260504040031 | 11 | 63 | 0.0 | 0.0 | 0.00 | 0.00 | 0.00 | 85 | 1017.7 |
| 20260504035506 | 11 | 63 | 0.0 | 0.0 | 0.00 | 0.00 | 0.00 | 85 | 1017.8 |
| 20260504035008 | 11 | 63 | 0.0 | 0.0 | 0.00 | 0.00 | 0.00 | 85 | 1017.8 |
| 20260504034508 | 11 | 63 | 0.0 | 0.0 | 0.00 | 0.00 | 0.00 | 85 | 1017.9 |
| 20260504034004 | 11 | 63 | 0.0 | 0.0 | 0.00 | 0.00 | 0.00 | 85 | 1017.9 |
| 20260504033506 | 11 | 63 | 0.0 | 0.0 | 0.00 | 0.00 | 0.00 | 84 | 1017.9 |
| 20260504033007 | 11 | 63 | 0.0 | 0.0 | 0.00 | 0.00 | 0.00 | 84 | 1017.9 |
| 20260504032508 | 11 | 63 | 0.0 | 0.0 | 0.00 | 0.00 | 0.00 | 84 | 1017.9 |
| 20260504032010 | 11 | 63 | 0.0 | 0.0 | 0.00 | 0.00 | 0.00 | 84 | 1017.9 |
| 20260504031504 | 11 | 63 | 0.0 | 0.0 | 0.00 | 0.00 | 0.00 | 84 | 1017.9 |
| 20260504031007 | 12 | 63 | 0.0 | 0.0 | 0.00 | 0.00 | 0.00 | 84 | 1018.0 |
| 20260504030506 | 12 | 63 | 0.0 | 0.0 | 0.00 | 0.00 | 0.00 | 83 | 1018.1 |
| 20260504030020 | 12 | 63 | 0.0 | 0.0 | 0.00 | 0.00 | 0.00 | 83 | 1018.1 |
| 20260504025508 | 12 | 63 | 0.0 | 0.0 | 0.00 | 0.00 | 0.00 | 82 | 1018.0 |
| 20260504025006 | 12 | 63 | 0.0 | 0.0 | 0.00 | 0.00 | 0.00 | 82 | 1018.0 |
| 20260504024517 | 12 | 63 | 0.0 | 0.0 | 0.00 | 0.00 | 0.00 | 82 | 1017.9 |
| 20260504024008 | 12 | 63 | 0.0 | 0.0 | 0.00 | 0.00 | 0.00 | 81 | 1017.9 |
| 20260504023502 | 12 | 63 | 0.0 | 0.0 | 0.00 | 0.00 | 0.00 | 81 | 1017.9 |
| 20260504023014 | 12 | 63 | 0.0 | 0.0 | 0.00 | 0.00 | 0.00 | 81 | 1018.0 |
| 20260504022504 | 13 | 63 | 0.0 | 0.0 | 0.00 | 0.00 | 0.00 | 81 | 1017.9 |
| 20260504022008 | 13 | 63 | 0.0 | 0.0 | 0.00 | 0.00 | 0.00 | 80 | 1017.9 |
| 20260504021511 | 13 | 63 | 0.0 | 0.0 | 0.00 | 0.00 | 0.00 | 80 | 1017.8 |
| 20260504021003 | 13 | 63 | 0.0 | 0.0 | 0.00 | 0.00 | 0.00 | 79 | 1017.8 |
| 20260504020506 | 13 | 63 | 0.0 | 0.0 | 0.00 | 0.00 | 0.00 | 79 | 1017.7 |
| 20260504020024 | 13 | 63 | 0.0 | 0.0 | 0.00 | 0.00 | 0.00 | 77 | 1017.7 |
| 20260504015503 | 14 | 63 | 0.0 | 0.0 | 0.00 | 0.00 | 0.00 | 77 | 1017.7 |
| 20260504015009 | 14 | 63 | 0.0 | 0.0 | 0.00 | 0.00 | 0.00 | 77 | 1017.5 |
| 20260504014518 | 14 | 63 | 0.0 | 0.0 | 0.00 | 0.00 | 0.00 | 76 | 1017.6 |
| 20260504014005 | 15 | 63 | 0.0 | 0.0 | 0.00 | 0.00 | 0.00 | 76 | 1017.5 |
| 20260504013505 | 15 | 63 | 0.0 | 0.0 | 0.00 | 0.00 | 0.00 | 75 | 1017.4 |
| 20260504013006 | 15 | 63 | 0.0 | 0.0 | 0.00 | 0.00 | 0.00 | 75 | 1017.3 |
| 20260504012509 | 15 | 63 | 0.0 | 0.0 | 0.00 | 0.00 | 0.00 | 73 | 1017.3 |